#timestamp,LO_Frequency,Hit,StdDev 
1634076015.4,286046998.5,N
1634076035.2,286046997.0,N
1634076055.0,286046997.8,N
1634076055.9,286046997.8,N
1634076075.8,286046999.6,N
1634076095.6,286046998.3,N
1634076115.4,286047001.2,N
1634076135.3,286046998.2,N
1634076155.1,286046998.1,N
1634076175.9,286047000.8,N
1634076195.7,286047001.2,N
1634076215.5,286046998.6,N
1634076235.4,286046996.7,N
1634076255.2,286046997.1,N
1634076275.1,286046998.7,N
1634076276.0,286046998.7,N
1634076295.8,286046998.5,N
1634076315.6,286047001.1,N
1634076335.5,286047000.6,N
1634076355.3,286047000.0,N
1634076375.1,286047001.9,N
1634076395.9,286047001.4,N
1634076415.7,286047003.6,N
1634076435.6,286047003.0,N
1634076455.4,286047004.0,N
1634076475.2,286047003.8,N
1634076495.1,286047004.3,N
1634076496.0,286047004.3,N
1634076515.8,286047003.1,N
1634076535.7,286047003.1,N
1634076555.5,286047004.3,N
1634076575.3,286047001.7,N
1634076595.2,286047001.4,N
1634076615.0,286047003.9,N
1634076615.9,286047003.9,N
1634076635.8,286047003.6,N
1634076655.6,286047004.3,N
1634076675.4,286047004.3,N
1634076695.3,286047003.7,N
1634076715.1,286047005.7,N
1634076735.8,286047006.8,N
1634076755.7,286047007.3,N
1634076775.5,286047004.5,N
1634076795.4,286047007.6,Y
1634076815.2,286047002.4,P
1634076835.0,286047001.7,P
1634076835.9,286047001.7,P
1634076855.8,286047002.2,Y
1634076875.6,286046997.0,P
1634076895.5,286046997.0,N
1634076915.3,286046996.5,N
1634076935.1,286047000.0,N
1634076955.9,286047002.8,N
1634076975.7,286046998.7,N
1634076995.5,286046999.4,N
1634077015.4,286047000.8,N
1634077035.2,286047000.5,N
1634077055.1,286047000.0,N
1634077056.0,286047000.0,N
1634077075.8,286046999.8,N
1634077095.6,286046999.4,N
1634077115.5,286046999.2,N
1634077135.3,286046998.3,N
1634077155.1,286047002.3,N
1634077175.9,286046999.9,N
1634077195.7,286047000.3,N
1634077215.6,286046999.9,N
1634077235.4,286047000.1,N
1634077255.2,286047000.3,N
1634077275.1,286047001.2,N
1634077276.0,286047001.2,N
1634077295.8,286046998.2,N
1634077315.7,286047001.2,N
1634077335.5,286047001.0,N
1634077355.3,286047000.0,N
1634077375.2,286047000.7,N
1634077395.0,286046998.1,N
1634077395.9,286046998.1,N
1634077415.7,286046998.8,N
1634077435.6,286046999.3,N
1634077455.4,286046999.3,N
1634077475.3,286046997.7,N
1634077495.1,286046997.8,N
1634077515.8,286046995.0,Y
1634077535.7,286046997.1,P
1634077555.5,286046999.4,N
1634077575.4,286046998.6,N
1634077595.2,286046998.6,N
1634077615.0,286047001.2,N
1634077615.9,286047001.2,N
1634077635.8,286047000.4,N
1634077655.6,286047000.6,N
1634077675.4,286047000.3,N
1634077695.3,286047000.2,N
1634077715.1,286047001.2,N
1634077735.9,286046998.2,N
1634077755.7,286046998.9,N
1634077775.5,286046998.3,N
1634077795.4,286046999.5,N
1634077815.2,286046996.6,N
1634077835.0,286046999.4,N
1634077835.9,286046999.4,N
1634077855.8,286046998.4,N
1634077875.6,286046999.9,N
1634077895.5,286047001.9,N
1634077915.3,286046998.1,N
1634077935.1,286046998.1,N
1634077955.9,286047002.4,N
1634077975.7,286047002.1,N
1634077995.5,286047001.5,N
1634078015.4,286047002.8,N
1634078035.2,286047004.3,N
1634078055.1,286047002.2,N
1634078056.0,286047002.2,N
1634078075.8,286047002.1,N
1634078095.6,286047002.5,N
1634078115.5,286046999.8,N
1634078135.3,286047002.2,N
1634078155.1,286047001.5,N
1634078175.9,286047001.9,N
1634078195.7,286047001.4,N
1634078215.6,286047004.4,N
1634078235.4,286047001.7,N
1634078255.2,286047003.1,N
1634078275.1,286047003.6,N
1634078276.0,286047003.6,N
1634078295.8,286047003.7,N
1634078315.7,286047004.1,N
1634078335.5,286047001.4,N
1634078355.3,286047001.6,N
1634078375.2,286047004.4,N
1634078395.0,286047003.5,N
1634078395.9,286047003.5,N
1634078415.7,286047003.7,N
1634078435.6,286047005.5,Y
1634078455.4,286047002.0,P
1634078475.3,286047001.9,P
1634078495.1,286047002.1,P
1634078496.0,286047011.9,Y
1634078515.8,286046998.8,P
1634078535.7,286046997.0,N
1634078555.5,286046997.2,N
1634078575.3,286046995.3,N
1634078595.2,286046998.0,N
1634078615.0,286046995.0,N
1634078615.9,286046995.0,N
1634078635.8,286046996.3,N
1634078655.6,286046993.6,Y
1634078675.4,286046999.4,P
1634078695.3,286047000.8,N
1634078715.1,286047001.1,N
1634078735.9,286047001.5,N
1634078755.7,286047002.7,N
1634078775.5,286046999.8,N
1634078795.4,286047000.2,N
1634078815.2,286046999.7,N
1634078835.0,286047004.4,N
1634078835.9,286047004.4,N
1634078855.8,286047004.3,N
1634078875.6,286047004.0,N
1634078895.5,286047004.0,N
1634078915.3,286047001.8,N
1634078935.1,286047003.9,N
1634078955.9,286047003.0,N
1634078975.7,286047005.7,N
1634078995.5,286047004.5,N
1634079015.4,286047005.1,N
1634079035.2,286047003.7,N
1634079055.1,286047003.8,N
1634079056.0,286047003.8,N
1634079075.8,286047001.7,N
1634079095.6,286047006.0,N
1634079115.5,286047003.2,N
1634079135.3,286047002.9,N
1634079155.2,286047003.4,N
1634079175.9,286047004.4,N
1634079195.7,286047003.2,N
1634079215.6,286047005.7,N
1634079235.4,286047005.8,Y
1634079255.2,286047002.1,P
1634079275.1,286047000.8,N
1634079276.0,286047000.8,N
1634079295.8,286047000.6,N
1634079315.7,286047002.7,N
1634079335.5,286047002.8,N
1634079355.3,286047001.9,N
1634079375.2,286047002.0,N
1634079395.0,286046999.8,N
1634079395.9,286047011.9,Y
1634079415.8,286047001.4,P
1634079435.6,286047002.1,P
1634079455.4,286047001.6,P
1634079475.3,286047000.5,N
1634079495.1,286047000.6,N
1634079515.8,286047000.7,N
1634079535.7,286047000.0,N
1634079555.5,286047001.7,N
1634079575.4,286047005.6,Y
1634079595.2,286047005.8,P
